Tracking 25707 objects as of 29-Jun-2022
HD Live streaming from Space Station
objects crossing your sky now

IUS DEB

Track IUS DEB now!
10-day predictions


NORAD ID: 43365
Int'l Code: 1999-040N
Perigee: 1,024.3 km
Apogee: 8,709.3 km
Inclination: 28.0 °
Period: 197.6 minutes
Semi major axis: 11237 km
RCS: Unknown
Launch date: July 23, 1999
Source: United States (US)
Launch site: AIR FORCE EASTERN TEST RANGE (AFETR)

Note: This is SATELLITE DEBRIS
aabbcc
Your satellite tracking list
Your tracking list is empty




NASA's NSSDC Master Catalog

Two Line Element Set (TLE):
1 43365U 99040N   22179.21369161 -.00000059  00000-0 -12464-2 0  9998
2 43365  28.0172 193.8727 3419266 170.9031 197.4240  7.28756584247903
Source of the keplerian elements: AFSPC